Weather reports worldwide

Advertisment
Leuchars, United Kingdom (3171): temperature & dewpoint: 07.08.2020 00:00:00 - 13.08.2020 00:00:00 (BST)Leuchars, United Kingdom (3171): temperature -20cm & temperature -100cm: 07.08.2020 00:00:00 - 13.08.2020 00:00:00 (BST)Leuchars, United Kingdom (3171): wind speed: 07.08.2020 00:00:00 - 13.08.2020 00:00:00 (BST)Leuchars, United Kingdom (3171): wind direction: 07.08.2020 00:00:00 - 13.08.2020 00:00:00 (BST)Leuchars, United Kingdom (3171): reduced air pressure: 07.08.2020 00:00:00 - 13.08.2020 00:00:00 (BST)Leuchars, United Kingdom (3171): visibility: 07.08.2020 00:00:00 - 13.08.2020 00:00:00 (BST)Leuchars, United Kingdom (3171): sunshine duration: 07.08.2020 00:00:00 - 13.08.2020 00:00:00 (BST)Leuchars, United Kingdom (3171): precipitation: 07.08.2020 00:00:00 - 13.08.2020 00:00:00 (BST)
Date & Time tt [°C] td [°C] tt -20cm [°C] tt -100cm [°C] ff [km/h] ff [kn] dd ppp [hPa] vv [km] sd [min] rr [mm]
13.08.2020 00:00:00 - - - - - - - - - - -
12.08.2020 23:00:00 - - - - - - - - - - -
12.08.2020 22:00:00 - - - - - - - - - - -
12.08.2020 21:00:00 - - - - - - - - - - -
12.08.2020 20:00:00 - - - - - - - - - - -
12.08.2020 19:00:00 - - - - - - - - - - -
12.08.2020 18:00:00 - - - - - - - - - - -
12.08.2020 17:00:00 - - - - - - - - - - -
12.08.2020 16:00:00 - - - - - - - - - - -
12.08.2020 15:00:00 - - - - - - - - - - -
12.08.2020 14:00:00 - - - - - - - - - - -
12.08.2020 13:00:00 - - - - - - - - - - -
12.08.2020 12:00:00 - - - - - - - - - - -
12.08.2020 11:00:00 - - - - - - - - - - -
12.08.2020 10:00:00 - - - - - - - - - - -
12.08.2020 09:00:00 - - - - - - - - - - -
12.08.2020 08:00:00 - - - - - - - - - - -
12.08.2020 07:00:00 - - - - - - - - - - -
12.08.2020 06:00:00 - - - - - - - - - - -
12.08.2020 05:00:00 - - - - - - - - - - -
12.08.2020 04:00:00 - - - - - - - - - - -
12.08.2020 03:00:00 - - - - - - - - - - -
12.08.2020 02:00:00 - - - - - - - - - - -
12.08.2020 01:00:00 - - - - - - - - - - -
12.08.2020 00:00:00 - - - - - - - - - - -
11.08.2020 23:00:00 - - - - - - - - - - -
11.08.2020 22:00:00 - - - - - - - - - - -
11.08.2020 21:00:00 - - - - - - - - - - -
11.08.2020 20:00:00 - - - - - - - - - - -
11.08.2020 19:00:00 - - - - - - - - - - -
11.08.2020 18:00:00 - - - - - - - - - - -
11.08.2020 17:00:00 - - - - - - - - - - -
11.08.2020 16:00:00 - - - - - - - - - - -
11.08.2020 15:00:00 - - - - - - - - - - -
11.08.2020 14:00:00 - - - - - - - - - - -
11.08.2020 13:00:00 - - - - - - - - - - -
11.08.2020 12:00:00 - - - - - - - - - - -
11.08.2020 11:00:00 - - - - - - - - - - -
11.08.2020 10:00:00 - - - - - - - - - - -
11.08.2020 09:00:00 - - - - - - - - - - -
11.08.2020 08:00:00 - - - - - - - - - - -
11.08.2020 07:00:00 - - - - - - - - - - -
11.08.2020 06:00:00 - - - - - - - - - - -
11.08.2020 05:00:00 - - - - - - - - - - -
11.08.2020 04:00:00 - - - - - - - - - - -
11.08.2020 03:00:00 - - - - - - - - - - -
11.08.2020 02:00:00 - - - - - - - - - - -
11.08.2020 01:00:00 - - - - - - - - - - -
11.08.2020 00:00:00 - - - - - - - - - - -
10.08.2020 23:00:00 - - - - - - - - - - -
10.08.2020 22:00:00 - - - - - - - - - - -
10.08.2020 21:00:00 - - - - - - - - - - -
10.08.2020 20:00:00 - - - - - - - - - - -
10.08.2020 19:00:00 - - - - - - - - - - -
10.08.2020 18:00:00 - - - - - - - - - - -
10.08.2020 17:00:00 - - - - - - - - - - -
10.08.2020 16:00:00 - - - - - - - - - - -
10.08.2020 15:00:00 - - - - - - - - - - -
10.08.2020 14:00:00 - - - - - - - - - - -
10.08.2020 13:00:00 - - - - - - - - - - -
10.08.2020 12:00:00 - - - - - - - - - - -
10.08.2020 11:00:00 - - - - - - - - - - -
10.08.2020 10:00:00 - - - - - - - - - - -
10.08.2020 09:00:00 - - - - - - - - - - -
10.08.2020 08:00:00 - - - - - - - - - - -
10.08.2020 07:00:00 13,9 12,8 - - 15 8 ENE 1021,2 10 0 0,0
10.08.2020 06:00:00 13,8 12,6 - - 15 8 ENE 1021,3 10 0 0,0
10.08.2020 05:00:00 13,9 12,6 - - 13 7 ENE 1021,4 10 0 0,0
10.08.2020 04:00:00 13,8 12,6 - - 13 7 ENE 1021,8 10 0 0,0
10.08.2020 03:00:00 13,8 12,5 - - 11 6 ENE 1022,1 10 0 0,0
10.08.2020 02:00:00 13,9 12,6 - - 11 6 ENE 1022,2 24 0 0,0
10.08.2020 01:00:00 13,9 12,8 - - 13 7 ENE 1022,7 10 - 0,0
10.08.2020 00:00:00 13,9 12,7 - - 15 8 ENE 1022,8 22 0 0,0
09.08.2020 23:00:00 14,0 12,6 - - 13 7 ENE 1023,1 19 0 0,0
09.08.2020 22:00:00 13,9 12,3 - - 13 7 ENE 1023,3 10 0 0,0
09.08.2020 21:00:00 14,2 12,3 - - 13 7 E 1023,4 23 0 0,0
09.08.2020 20:00:00 14,4 12,1 - - 15 8 E 1023,5 25 0 0,0
09.08.2020 19:00:00 14,9 12,3 - - 18 10 E 1023,5 10 0 0,0
09.08.2020 18:00:00 14,9 12,1 - - 22 12 E 1023,6 10 0 0,0
09.08.2020 17:00:00 15,3 12,3 - - 22 12 E 1024,0 28 6 0,0
09.08.2020 16:00:00 15,2 12,3 - - 22 12 E 1024,4 28 0 0,0
09.08.2020 15:00:00 15,1 12,0 - - 22 12 E 1024,9 28 18 0,0
09.08.2020 14:00:00 15,6 12,3 - - 21 11 E 1025,1 10 6 0,0
09.08.2020 13:00:00 15,2 11,8 - - 21 11 E 1025,6 10 12 0,0
09.08.2020 12:00:00 15,3 12,0 - - 21 11 E 1025,7 29 30 0,0
09.08.2020 11:00:00 14,8 12,5 - - 16 9 E 1026,1 24 24 0,0
09.08.2020 10:00:00 14,6 12,5 15,7 14,4 15 8 ENE 1026,5 10 6 0,0
09.08.2020 09:00:00 13,8 12,5 - - 11 6 ENE 1026,6 10 0 0,0
09.08.2020 08:00:00 12,6 12,5 - - 8 4 NE 1026,6 8 6 0,0
09.08.2020 07:00:00 10,1 10,1 - - 11 6 N 1026,7 10 0 0,0
09.08.2020 06:00:00 8,0 7,9 - - 8 4 NNE 1026,7 10 0 0,0
09.08.2020 05:00:00 7,0 6,8 - - 8 4 N 1026,5 5 0 0,0
09.08.2020 04:00:00 9,6 9,5 - - 2 1 WNW 1026,9 10 0 0,0
09.08.2020 03:00:00 10,0 9,9 - - 5 3 N 1027,0 10 0 0,0
09.08.2020 02:00:00 9,7 9,6 - - 5 3 N 1027,0 1,2 0 0,0
09.08.2020 01:00:00 10,4 10,2 - - 8 4 NNE 1027,1 10 - 0,0
09.08.2020 00:00:00 10,6 10,2 - - 8 4 NNE 1027,2 22 0 0,0
08.08.2020 23:00:00 11,6 10,7 - - 5 3 ENE 1027,0 25 0 0,0
08.08.2020 22:00:00 13,6 12,1 - - 11 6 E 1027,1 10 0 0,0
08.08.2020 21:00:00 14,1 12,2 - - 13 7 ESE 1026,8 10 36 0,0
08.08.2020 20:00:00 14,8 11,9 - - 21 11 ESE 1026,4 29 60 0,0
08.08.2020 19:00:00 15,6 11,4 - - 21 11 ESE 1026,1 10 60 0,0
08.08.2020 18:00:00 16,5 11,1 - - 22 12 ESE 1026,1 10 60 0,0
08.08.2020 17:00:00 17,5 10,7 - - 22 12 ESE 1025,8 10 60 0,0
08.08.2020 16:00:00 17,3 10,8 - - 26 14 ESE 1026,0 30 60 0,0
08.08.2020 15:00:00 17,6 10,3 - - 28 15 ESE 1025,9 10 60 0,0
08.08.2020 14:00:00 17,9 10,9 - - 26 14 ESE 1025,7 35 54 0,0
08.08.2020 13:00:00 18,8 11,4 - - 16 9 ESE 1025,5 35 60 0,0
08.08.2020 12:00:00 17,4 11,7 - - 16 9 ESE 1025,3 35 60 0,0
08.08.2020 11:00:00 17,3 9,5 - - 9 5 S 1024,9 40 60 0,0
08.08.2020 10:00:00 16,4 9,9 15,9 14,2 5 3 WSW 1024,7 10 60 0,0
08.08.2020 09:00:00 14,8 10,6 - - 9 5 WSW 1024,5 35 60 0,0
08.08.2020 08:00:00 13,2 10,5 - - 8 4 WSW 1024,0 30 60 0,0
08.08.2020 07:00:00 11,3 9,6 - - 8 4 W 1023,5 30 30 0,0
08.08.2020 06:00:00 9,9 8,8 - - 13 7 WSW 1022,8 30 0 0,0
08.08.2020 05:00:00 10,3 8,5 - - 8 4 SSW 1022,2 10 0 0,0
08.08.2020 04:00:00 11,4 9,5 - - 13 7 W 1021,3 10 0 0,0
08.08.2020 03:00:00 12,0 10,2 - - 16 9 W 1020,7 40 0 0,0
08.08.2020 02:00:00 11,6 10,6 - - 16 9 WSW 1020,0 10 0 0,0
08.08.2020 01:00:00 13,6 11,5 - - 16 9 W 1019,3 10 - 0,0
08.08.2020 00:00:00 15,0 13,7 - - 15 8 W 1018,5 40 0 0,0
07.08.2020 23:00:00 16,1 14,3 - - 21 11 WSW 1017,6 29 0 0,0
07.08.2020 22:00:00 17,3 15,3 - - 21 11 WSW 1016,9 10 0 0,0
07.08.2020 21:00:00 18,8 16,2 - - 28 15 W 1016,4 27 0 0,0
07.08.2020 20:00:00 20,8 15,8 - - 22 12 WSW 1015,4 30 12 0,0
07.08.2020 19:00:00 22,5 15,3 - - 22 12 SW 1014,9 30 42 0,0
07.08.2020 18:00:00 23,7 15,4 - - 24 13 SW 1014,7 10 54 0,0
07.08.2020 17:00:00 23,8 16,4 - - 21 11 SSW 1014,8 10 24 0,0
07.08.2020 16:00:00 23,9 17,0 - - 21 11 SW 1015,1 10 24 0,0
07.08.2020 15:00:00 21,4 16,2 - - 21 11 SW 1015,3 35 0 0,0
07.08.2020 14:00:00 22,1 15,6 - - 16 9 S 1015,3 40 6 0,0
07.08.2020 13:00:00 21,9 14,8 - - 24 13 SW 1015,8 30 6 0,0
07.08.2020 12:00:00 21,6 14,5 - - 24 13 SSW 1015,7 10 42 0,0
07.08.2020 11:00:00 20,9 14,6 - - 22 12 SSW 1016,0 35 54 0,0
07.08.2020 10:00:00 19,6 14,6 15,7 14,2 22 12 SW 1016,2 10 54 0,0
07.08.2020 09:00:00 18,9 14,5 - - 21 11 SSW 1016,0 35 60 0,0
07.08.2020 08:00:00 17,5 14,7 - - 9 5 SW 1015,9 10 36 0,0
07.08.2020 07:00:00 15,1 13,2 - - 2 1 E 1015,8 30 6 0,0
07.08.2020 06:00:00 15,9 13,7 - - 11 6 SW 1015,5 10 0 0,0
07.08.2020 05:00:00 14,4 13,5 - - 9 5 SSW 1015,3 30 0 0,0
07.08.2020 04:00:00 14,7 13,1 - - 8 4 W 1015,1 35 0 0,0
07.08.2020 03:00:00 15,6 13,4 - - 13 7 W 1015,1 45 0 0,0
07.08.2020 02:00:00 16,0 13,8 - - 11 6 W 1015,1 10 0 0,0
07.08.2020 01:00:00 15,6 13,5 - - 9 5 SW 1015,1 10 - 0,0
07.08.2020 00:00:00 17,5 14,6 - - 11 6 SW 1014,9 35 0 0,0

tt = temperature
td = dewpoint
tt -20cm = temperature -20cm
tt -100cm = temperature -100cm
ff = wind speed
dd = wind direction
ppp = reduced air pressure
vv = visibility
sd = sunshine duration
rr = precipitation

Next stations